Terug naar catalogus

COSMOS 886 DEB

ActiefUNKNOWN
NORAD 15762·DEBRIS·🇷🇺 Russia

Gelanceerd Dec 27, 1976 vanaf Baikonur Cosmodrome

Loading…

Volgende Passages (komende 24 uur)

TLE

VersSource: Space-Track

Epoch: Sep 14, 2026, 07:43 UTC

1 15762U 76126BU  26257.32208558 -.00000159  00000-0 -20322-3 0  9997
2 15762  65.6657   9.1837 0738295 127.6797 239.3538 12.59492462713366

Volg COSMOS 886 DEB in realtime met AllMySat

Download on the App Store